Logansport, IN

6:18 PM EDT on August 17, 2017 (GMT -0400)
Logansport Municipal

Weather History for KGGP - April, 2013

Change the Weather History Date:

Monday, April 29, 2013

  Actual Average Record
Temperature  
Mean Temperature 60 °F -  
Max Temperature 68 °F 67 °F 73 °F (2014)
Min Temperature 53 °F 43 °F 35 °F (2015)
Degree Days  
Heating Degree Days 4    
Growing Degree Days 10 (Base 50)    
Moisture  
Dew Point 52 °F    
Average Humidity 81    
Maximum Humidity 100    
Minimum Humidity 56    
Precipitation  
Precipitation 0.00 in - - ()
Sea Level Pressure  
Sea Level Pressure 29.92 in    
Wind  
Wind Speed 7 mph (SSW)    
Max Wind Speed 14 mph    
Max Gust Speed -    
Visibility 8 miles    
Events      
Averages and records for this station are not official NWS values.
T = Trace of Precipitation, MM = Missing Value Source: NWS Daily Summary

Daily Weather History Graph

Daily Weather History Graph

Search for Another Location

Airport or City:

Trip Planner

Search our weather history database for the weather conditions in past years. The results will help you decide how hot, cold, wet, or windy it might be!

Date:

Astronomy

Apr. 29, 2013 Rise Set
Actual Time 6:46 AM EDT 8:39 PM EDT
Civil Twilight 6:16 AM EDT 9:09 PM EDT
Nautical Twilight 5:40 AM EDT 9:45 PM EDT
Astronomical Twilight 5:02 AM EDT 10:24 PM EDT
Moon 12:09 AM EDT (4/29) 10:05 AM EDT (4/29)
Length of Visible Light 14h 52m
Length of Day
13h 53m
Waning Gibbous, 80% of the Moon is Illuminated
Apr 29
Waning Gibbous
May 2
Last Quarter
May 9
New
May 18
First Quarter
May 25
Full

Hourly Weather History & Observations

Time (EDT) Temp. Dew Point Humidity Pressure Visibility Wind Dir Wind Speed Gust Speed Precip Events Conditions
12:15 AM 53.6 °F 53.6 °F 100% 29.89 in 5.0 mi SW 4.6 mph - N/A   Overcast
12:35 AM 53.6 °F 53.6 °F 100% 29.89 in 4.0 mi WSW 4.6 mph - N/A   Overcast
12:55 AM 53.6 °F 53.6 °F 100% 29.89 in 4.0 mi WSW 4.6 mph - N/A   Overcast
1:15 AM 53.6 °F 53.6 °F 100% 29.90 in 5.0 mi WSW 3.5 mph - N/A   Overcast
1:35 AM 53.6 °F 53.6 °F 100% 29.90 in 4.0 mi WSW 4.6 mph - N/A   Overcast
1:55 AM 53.6 °F 53.6 °F 100% 29.90 in 5.0 mi SW 4.6 mph - N/A   Overcast
2:15 AM 53.6 °F 53.6 °F 100% 29.90 in 4.0 mi SW 4.6 mph - N/A   Overcast
2:35 AM 53.6 °F 53.6 °F 100% 29.89 in 4.0 mi SW 4.6 mph - N/A   Overcast
2:55 AM 53.6 °F 51.8 °F 94% 29.89 in 4.0 mi SW 4.6 mph - N/A   Overcast
3:15 AM 53.6 °F 53.6 °F 100% 29.89 in 4.0 mi SW 5.8 mph - N/A   Overcast
3:35 AM 53.6 °F 51.8 °F 94% 29.89 in 5.0 mi SW 4.6 mph - N/A   Overcast
3:55 AM 53.6 °F 51.8 °F 94% 29.90 in 4.0 mi SW 5.8 mph - N/A   Overcast
4:15 AM 53.6 °F 51.8 °F 94% 29.90 in 4.0 mi SW 3.5 mph - N/A   Overcast
4:35 AM 53.6 °F 51.8 °F 94% 29.90 in 4.0 mi SW 4.6 mph - N/A   Overcast
4:55 AM 53.6 °F 51.8 °F 94% 29.91 in 4.0 mi SW 5.8 mph - N/A   Overcast
5:15 AM 53.6 °F 51.8 °F 94% 29.91 in 5.0 mi WSW 6.9 mph - N/A   Overcast
5:35 AM 53.6 °F 51.8 °F 94% 29.91 in 5.0 mi WSW 5.8 mph - N/A   Overcast
5:55 AM 53.6 °F 51.8 °F 94% 29.92 in 5.0 mi SW 4.6 mph - N/A   Overcast
6:15 AM 53.6 °F 51.8 °F 94% 29.93 in 5.0 mi SW 5.8 mph - N/A   Overcast
6:35 AM 53.6 °F 51.8 °F 94% 29.94 in 5.0 mi WSW 5.8 mph - N/A   Overcast
6:55 AM 53.6 °F 51.8 °F 94% 29.94 in 3.0 mi WSW 6.9 mph - N/A   Overcast
7:15 AM 53.6 °F 51.8 °F 94% 29.95 in 5.0 mi West 10.4 mph - N/A   Overcast
7:35 AM 53.6 °F 51.8 °F 94% 29.95 in 7.0 mi West 9.2 mph - N/A   Overcast
7:55 AM 53.6 °F 50.0 °F 88% 29.96 in 7.0 mi West 10.4 mph - N/A   Overcast
8:15 AM 53.6 °F 51.8 °F 94% 29.96 in 7.0 mi West 5.8 mph - N/A   Overcast
8:35 AM 53.6 °F 51.8 °F 94% 29.97 in 10.0 mi West 6.9 mph - N/A   Overcast
8:55 AM 53.6 °F 51.8 °F 94% 29.97 in 10.0 mi West 6.9 mph - N/A   Overcast
9:15 AM 53.6 °F 51.8 °F 94% 29.97 in 7.0 mi WSW 6.9 mph - N/A   Overcast
9:35 AM 55.4 °F 51.8 °F 88% 29.98 in 5.0 mi WSW 5.8 mph - N/A   Overcast
9:55 AM 55.4 °F 51.8 °F 88% 29.97 in 7.0 mi WSW 4.6 mph - N/A   Overcast
10:15 AM 55.4 °F 51.8 °F 88% 29.98 in 7.0 mi WSW 6.9 mph - N/A   Overcast
10:35 AM 55.4 °F 51.8 °F 88% 29.98 in 7.0 mi WSW 6.9 mph - N/A   Overcast
10:55 AM 59.0 °F 53.6 °F 82% 29.97 in 10.0 mi WSW 6.9 mph - N/A   Overcast
11:15 AM 59.0 °F 51.8 °F 77% 29.97 in 10.0 mi WSW 5.8 mph - N/A   Mostly Cloudy
11:35 AM 60.8 °F 53.6 °F 77% 29.97 in 10.0 mi WSW 4.6 mph - N/A   Scattered Clouds
11:55 AM 60.8 °F 53.6 °F 77% 29.97 in 10.0 mi SSW 4.6 mph - N/A   Scattered Clouds
12:15 PM 60.8 °F 53.6 °F 77% 29.97 in 10.0 mi SW 5.8 mph - N/A   Mostly Cloudy
12:35 PM 62.6 °F 53.6 °F 72% 29.97 in 10.0 mi SW 9.2 mph - N/A   Overcast
12:55 PM 62.6 °F 53.6 °F 72% 29.96 in 10.0 mi SW 4.6 mph - N/A   Overcast
1:15 PM 62.6 °F 53.6 °F 72% 29.96 in 10.0 mi SW 6.9 mph - N/A   Mostly Cloudy
1:35 PM 62.6 °F 53.6 °F 72% 29.96 in 10.0 mi SSW 8.1 mph - N/A   Scattered Clouds
1:55 PM 64.4 °F 53.6 °F 68% 29.95 in 10.0 mi South 10.4 mph - N/A   Mostly Cloudy
2:15 PM 64.4 °F 51.8 °F 64% 29.95 in 10.0 mi SSW 10.4 mph - N/A   Mostly Cloudy
2:35 PM 64.4 °F 51.8 °F 64% 29.95 in 10.0 mi South 9.2 mph - N/A   Mostly Cloudy
2:55 PM 66.2 °F 51.8 °F 60% 29.94 in 10.0 mi South 8.1 mph - N/A   Mostly Cloudy
3:15 PM 68.0 °F 53.6 °F 60% 29.94 in 10.0 mi South 11.5 mph - N/A   Mostly Cloudy
3:35 PM 68.0 °F 51.8 °F 56% 29.93 in 10.0 mi SSW 12.7 mph - N/A   Mostly Cloudy
3:55 PM 68.0 °F 53.6 °F 60% 29.92 in 10.0 mi South 10.4 mph - N/A   Mostly Cloudy
4:15 PM 66.2 °F 51.8 °F 60% 29.92 in 10.0 mi South 10.4 mph - N/A   Mostly Cloudy
4:35 PM 66.2 °F 51.8 °F 60% 29.91 in 10.0 mi South 11.5 mph - N/A   Mostly Cloudy
4:55 PM 68.0 °F 51.8 °F 56% 29.91 in 10.0 mi SSW 13.8 mph - N/A   Mostly Cloudy
5:15 PM 68.0 °F 51.8 °F 56% 29.90 in 10.0 mi South 11.5 mph - N/A   Scattered Clouds
5:35 PM 68.0 °F 51.8 °F 56% 29.90 in 10.0 mi South 12.7 mph - N/A   Mostly Cloudy
5:55 PM 68.0 °F 51.8 °F 56% 29.90 in 10.0 mi SSE 11.5 mph - N/A   Mostly Cloudy
6:15 PM 66.2 °F 51.8 °F 60% 29.90 in 10.0 mi SSE 12.7 mph - N/A   Scattered Clouds
6:35 PM 66.2 °F 51.8 °F 60% 29.90 in 10.0 mi South 9.2 mph - N/A   Clear
6:55 PM 64.4 °F 51.8 °F 64% 29.90 in 10.0 mi South 10.4 mph - N/A   Scattered Clouds
7:15 PM 64.4 °F 51.8 °F 64% 29.90 in 10.0 mi South 10.4 mph - N/A   Scattered Clouds
7:35 PM 64.4 °F 51.8 °F 64% 29.90 in 10.0 mi South 9.2 mph - N/A   Clear
7:55 PM 62.6 °F 53.6 °F 72% 29.89 in 10.0 mi SSE 8.1 mph - N/A   Clear
8:15 PM 62.6 °F 53.6 °F 72% 29.89 in 10.0 mi SSE 9.2 mph - N/A   Clear
8:35 PM 60.8 °F 53.6 °F 77% 29.89 in 10.0 mi SSE 8.1 mph - N/A   Clear
8:55 PM 59.0 °F 51.8 °F 77% 29.89 in 10.0 mi SE 8.1 mph - N/A   Clear
9:15 PM 59.0 °F 51.8 °F 77% 29.90 in 10.0 mi SSE 8.1 mph - N/A   Clear
9:35 PM 59.0 °F 51.8 °F 77% 29.91 in 10.0 mi SE 8.1 mph - N/A   Clear
9:55 PM 59.0 °F 51.8 °F 77% 29.91 in 10.0 mi SE 9.2 mph - N/A   Clear
10:15 PM 59.0 °F 51.8 °F 77% 29.91 in 10.0 mi SE 10.4 mph - N/A   Clear
10:35 PM 57.2 °F 51.8 °F 82% 29.91 in 10.0 mi SE 9.2 mph - N/A   Clear
10:55 PM 57.2 °F 51.8 °F 82% 29.91 in 10.0 mi SSE 8.1 mph - N/A   Clear
11:15 PM 55.4 °F 51.8 °F 88% 29.91 in 10.0 mi SSE 9.2 mph - N/A   Clear
11:35 PM 55.4 °F 51.8 °F 88% 29.91 in 10.0 mi SSE 9.2 mph - N/A   Clear
11:55 PM 55.4 °F 51.8 °F 88% 29.91 in 10.0 mi SSE 8.1 mph - N/A   Clear